Location: Santiago
(33.4378°S, 70.6505°W)
Time: 08:39:49
(UTC+00:00)

ISS - Pass Details

Date: 07 February 2026
Orbit: 413 x 428 km, 51.6° (Epoch: 13 February)

Event Time Altitude Azimuth Distance (km) Brightness Sun altitude
Rises 23:46:16 0° 326° (NW) 2,377 0.3 -1.7°
Reaches altitude 10° 23:48:23 10° 331° (NNW) 1,521 -0.8 -2.1°
Maximum altitude 23:51:43 51° 47° (NE) 552 -3.5 -2.8°
Drops below altitude 10° 23:55:06 10° 124° (ESE) 1,545 -1.2 -3.4°
Sets 23:57:16 0° 128° (SE) 2,420 -0.2 -3.9°
